GW3020 Weather Reports


time (UTC)temp
C
wind
direction
speed
KPH
gust
KPH
rain 1hr
cm
rain 24hr
cm
rain mn
cm
humidity
%
barometer
mb
20260508141735 11 196 0.0 0.0 0.00 0.00 0.00 56 1016.5
20260508141233 11 151 1.6 3.2 0.00 0.00 0.00 53 1016.5
20260508140730 11 183 0.0 1.6 0.00 0.00 0.00 54 1016.7
20260508140228 11 174 1.6 4.8 0.00 0.00 0.00 56 1016.5
20260508135724 11 178 1.6 4.8 0.00 0.00 0.00 58 1016.7
20260508135220 11 210 0.0 3.2 0.00 0.00 0.00 57 1016.5
20260508134715 10 177 3.2 3.2 0.00 0.00 0.00 57 1016.7
20260508134213 10 241 0.0 1.6 0.00 0.00 0.00 62 1016.4
20260508133710 10 252 3.2 4.8 0.00 0.00 0.00 66 1016.5
20260508133207 10 184 1.6 3.2 0.00 0.00 0.00 66 1016.4
20260508132704 9 210 0.0 1.6 0.00 0.00 0.00 70 1016.4
20260508132201 8 257 3.2 3.2 0.00 0.00 0.00 71 1016.4
20260508131656 8 217 1.6 1.6 0.00 0.00 0.00 75 1016.2
20260508131153 8 254 1.6 3.2 0.00 0.00 0.00 77 1016.3
20260508130650 7 239 0.0 1.6 0.00 0.00 0.00 81 1016.5
20260508130147 7 237 0.0 3.2 0.00 0.00 0.00 82 1016.3
20260508125643 7 217 0.0 1.6 0.00 0.00 0.00 83 1016.3
20260508125140 6 220 0.0 3.2 0.00 0.00 0.00 83 1016.4
20260508124638 6 259 3.2 6.4 0.00 0.00 0.00 84 1016.4
20260508124135 6 185 1.6 3.2 0.00 0.00 0.00 85 1016.5
20260508123633 6 216 0.0 1.6 0.00 0.00 0.00 87 1016.6
20260508123130 6 236 1.6 1.6 0.00 0.00 0.00 88 1016.6
20260508122626 5 220 0.0 1.6 0.00 0.00 0.00 90 1016.5
20260508122123 5 240 0.0 3.2 0.00 0.00 0.00 92 1016.2
20260508121622 5 224 0.0 0.0 0.00 0.00 0.00 93 1016.3
20260508121120 4 244 0.0 1.6 0.00 0.00 0.00 94 1016.2
20260508120617 3 243 0.0 1.6 0.00 0.00 0.00 95 1016.0
20260508120115 3 257 1.6 3.2 0.00 0.00 0.00 95 1016.1
20260508115612 3 245 1.6 4.8 0.00 0.00 0.00 96 1016.1
20260508115108 3 239 0.0 0.0 0.00 0.00 0.00 96 1016.1
20260508114606 3 239 0.0 1.6 0.00 0.00 0.00 96 1015.9
20260508114101 3 242 0.0 0.0 0.00 0.00 0.00 96 1016.0
20260508113559 3 242 0.0 0.0 0.00 0.00 0.00 96 1015.9
20260508113057 3 242 0.0 1.6 0.00 0.00 0.00 96 1015.9
20260508112553 2 242 0.0 0.0 0.00 0.00 0.00 96 1015.8
20260508112050 2 243 0.0 1.6 0.00 0.00 0.00 96 1016.0
20260508111547 2 249 0.0 0.0 0.00 0.00 0.00 96 1015.8
20260508111044 2 241 0.0 0.0 0.00 0.00 0.00 96 1015.9
20260508110542 2 241 0.0 0.0 0.00 0.00 0.00 96 1015.8
20260508110038 1 241 0.0 1.6 0.00 0.00 0.00 96 1015.7
20260508105533 1 241 0.0 0.0 0.00 0.00 0.00 96 1015.8
20260508105031 1 241 0.0 0.0 0.00 0.00 0.00 96 1015.7
20260508104528 1 241 0.0 0.0 0.00 0.00 0.00 96 1015.7
20260508104024 1 241 0.0 0.0 0.00 0.00 0.00 96 1015.6
20260508103521 1 241 0.0 0.0 0.00 0.00 0.00 96 1015.6
20260508103019 1 241 0.0 0.0 0.00 0.00 0.00 96 1015.6
20260508102516 1 241 0.0 0.0 0.00 0.00 0.00 96 1015.6
20260508102014 1 241 0.0 0.0 0.00 0.00 0.00 96 1015.4
20260508101511 1 241 0.0 0.0 0.00 0.00 0.00 96 1015.2
20260508101008 1 241 0.0 0.0 0.00 0.00 0.00 96 1015.4
20260508100507 1 241 0.0 0.0 0.00 0.00 0.00 96 1015.4
20260508100003 1 242 0.0 1.6 0.00 0.00 0.00 96 1015.2
20260508095455 1 249 0.0 1.6 0.00 0.00 0.00 96 1015.2
20260508094952 1 246 0.0 1.6 0.00 0.00 0.00 96 1015.1
20260508094448 1 246 0.0 0.0 0.00 0.00 0.00 95 1015.1
20260508093945 2 246 0.0 0.0 0.00 0.00 0.00 95 1015.3
20260508093442 2 246 0.0 0.0 0.00 0.00 0.00 95 1015.2
20260508092940 2 246 0.0 0.0 0.00 0.00 0.00 95 1015.4
20260508092437 2 246 0.0 0.0 0.00 0.00 0.00 95 1015.4
20260508091935 2 246 0.0 0.0 0.00 0.00 0.00 95 1015.1
20260508091427 2 246 0.0 0.0 0.00 0.00 0.00 95 1015.1
20260508090924 2 246 0.0 0.0 0.00 0.00 0.00 95 1015.0
20260508090423 2 246 0.0 0.0 0.00 0.00 0.00 95 1015.0
20260508085918 2 246 0.0 0.0 0.00 0.00 0.00 95 1015.1
20260508085415 2 246 0.0 0.0 0.00 0.00 0.00 95 1015.4
20260508084911 2 246 0.0 0.0 0.00 0.00 0.00 95 1015.1
20260508084408 2 246 0.0 0.0 0.00 0.00 0.00 95 1015.2
20260508083906 2 246 0.0 0.0 0.00 0.00 0.00 95 1015.2
20260508083404 2 246 0.0 0.0 0.00 0.00 0.00 95 1015.1
20260508082903 3 246 0.0 0.0 0.00 0.00 0.00 95 1014.9
20260508082401 3 246 0.0 0.0 0.00 0.00 0.00 95 1015.1
20260508081858 3 246 0.0 0.0 0.00 0.00 0.00 95 1015.2
20260508081355 3 246 0.0 0.0 0.00 0.00 0.00 95 1015.2
20260508080851 3 246 0.0 0.0 0.00 0.00 0.00 95 1015.1
20260508080350 3 246 0.0 0.0 0.00 0.00 0.00 95 1014.9
20260508075846 3 245 0.0 0.0 0.00 0.00 0.00 95 1015.1
20260508075343 3 245 0.0 0.0 0.00 0.00 0.00 95 1015.0
20260508074841 3 246 0.0 0.0 0.00 0.00 0.00 95 1015.0
20260508074337 4 246 0.0 0.0 0.00 0.00 0.00 95 1014.9
20260508073834 4 246 1.6 1.6 0.00 0.00 0.00 95 1015.0
20260508073332 4 233 0.0 1.6 0.00 0.00 0.00 95 1014.8
20260508072829 3 232 0.0 1.6 0.00 0.00 0.00 95 1014.8
20260508072325 3 231 0.0 1.6 0.00 0.00 0.00 95 1014.9
20260508071823 3 222 0.0 0.0 0.00 0.00 0.00 95 1014.8
20260508071321 3 210 0.0 0.0 0.00 0.00 0.00 95 1014.9
20260508070818 3 210 0.0 0.0 0.00 0.00 0.00 95 1014.6
20260508070316 3 210 0.0 0.0 0.00 0.00 0.00 95 1014.4
20260508065813 3 210 0.0 0.0 0.00 0.00 0.00 95 1014.7
20260508065311 3 210 0.0 0.0 0.00 0.00 0.00 95 1014.5
20260508064809 3 210 0.0 0.0 0.00 0.00 0.00 95 1014.7
20260508064307 3 210 0.0 0.0 0.00 0.00 0.00 95 1014.8
20260508063804 3 210 0.0 0.0 0.00 0.00 0.00 94 1014.6
20260508063302 3 210 0.0 0.0 0.00 0.00 0.00 94 1014.6
20260508062759 3 210 0.0 0.0 0.00 0.00 0.00 94 1014.7
20260508062256 3 210 0.0 0.0 0.00 0.00 0.00 94 1014.5
20260508061753 4 210 0.0 0.0 0.00 0.00 0.00 94 1014.8
20260508061250 4 210 0.0 0.0 0.00 0.00 0.00 94 1014.8
20260508060747 4 210 0.0 0.0 0.00 0.00 0.00 94 1014.6
20260508060245 5 210 0.0 0.0 0.00 0.00 0.00 94 1014.9
20260508055739 5 210 0.0 0.0 0.00 0.00 0.00 94 1014.8
20260508055236 5 210 0.0 0.0 0.00 0.00 0.00 93 1014.8
20260508054733 5 210 0.0 0.0 0.00 0.00 0.00 93 1014.8
20260508054226 5 210 0.0 0.0 0.00 0.00 0.00 93 1014.8
20260508053722 5 210 0.0 0.0 0.00 0.00 0.00 93 1014.9
20260508053220 5 210 0.0 0.0 0.00 0.00 0.00 93 1014.7
20260508052716 5 210 0.0 0.0 0.00 0.00 0.00 93 1014.6
20260508052213 5 210 0.0 0.0 0.00 0.00 0.00 93 1014.7
20260508051710 6 210 0.0 0.0 0.00 0.00 0.00 93 1014.7
20260508051205 6 210 0.0 0.0 0.00 0.00 0.00 93 1014.5
20260508050702 6 210 0.0 0.0 0.00 0.00 0.00 93 1014.5
20260508050200 6 210 0.0 0.0 0.00 0.00 0.00 93 1014.5
20260508045654 6 210 0.0 0.0 0.00 0.00 0.00 93 1014.3
20260508045153 6 210 0.0 0.0 0.00 0.00 0.00 93 1014.4
20260508044650 6 210 0.0 0.0 0.00 0.00 0.00 93 1014.3
20260508044146 6 210 0.0 0.0 0.00 0.00 0.00 93 1014.3
20260508043642 6 209 0.0 0.0 0.00 0.00 0.00 93 1014.3
20260508043141 6 216 0.0 0.0 0.00 0.00 0.00 92 1014.2
20260508042637 6 216 0.0 0.0 0.00 0.00 0.00 92 1014.2
20260508042134 6 216 0.0 0.0 0.00 0.00 0.00 92 1014.3
20260508041630 6 216 0.0 0.0 0.00 0.00 0.00 92 1014.1
20260508041127 6 217 0.0 0.0 0.00 0.00 0.00 92 1014.1
20260508040624 6 217 0.0 0.0 0.00 0.00 0.00 92 1013.9
20260508040122 6 216 0.0 0.0 0.00 0.00 0.00 91 1014.1
20260508035618 6 216 0.0 0.0 0.00 0.03 0.03 91 1013.8
20260508035116 6 216 0.0 0.0 0.00 0.03 0.03 91 1014.1
20260508034612 6 216 0.0 0.0 0.00 0.03 0.03 90 1013.9
20260508034109 6 216 0.0 1.6 0.00 0.03 0.03 90 1013.6
20260508033607 6 250 0.0 0.0 0.00 0.03 0.03 89 1013.9
20260508033105 6 250 0.0 0.0 0.00 0.03 0.03 89 1013.9
20260508032601 6 250 0.0 0.0 0.00 0.03 0.03 88 1013.8
20260508032059 7 250 0.0 0.0 0.00 0.03 0.03 88 1013.6
20260508031556 7 250 0.0 0.0 0.00 0.03 0.03 87 1013.6
20260508031052 7 250 0.0 0.0 0.00 0.03 0.03 85 1013.7
20260508030548 8 254 0.0 0.0 0.00 0.03 0.03 84 1013.6
20260508030047 8 258 0.0 0.0 0.00 0.03 0.03 84 1013.5
20260508025542 8 259 0.0 1.6 0.00 0.03 0.03 84 1013.7
20260508025039 8 264 1.6 1.6 0.00 0.03 0.03 84 1013.3
20260508024535 8 260 0.0 1.6 0.00 0.03 0.03 84 1013.4
20260508024032 8 251 0.0 1.6 0.00 0.03 0.03 84 1013.4
20260508023529 8 262 1.6 1.6 0.00 0.03 0.03 84 1013.2
20260508023027 8 256 0.0 1.6 0.00 0.03 0.03 85 1013.6
20260508022522 8 251 0.0 1.6 0.00 0.03 0.03 85 1013.3
20260508022019 8 250 1.6 1.6 0.00 0.03 0.03 85 1013.2
20260508021515 8 250 0.0 1.6 0.00 0.03 0.03 85 1013.2
20260508021011 8 231 0.0 0.0 0.00 0.03 0.03 84 1013.2
20260508020509 8 230 0.0 0.0 0.00 0.03 0.03 83 1013.1
20260508020007 8 230 0.0 0.0 0.00 0.03 0.03 82 1013.0
20260508015504 9 244 0.0 0.0 0.00 0.03 0.03 80 1013.0
20260508015001 10 252 0.0 1.6 0.00 0.03 0.03 78 1012.9
20260508014457 10 253 0.0 1.6 0.00 0.03 0.03 78 1012.8
20260508013953 10 269 1.6 3.2 0.00 0.03 0.03 77 1012.7
20260508013449 10 250 0.0 1.6 0.00 0.03 0.03 77 1012.4
20260508012947 10 277 1.6 1.6 0.00 0.03 0.03 76 1012.4
20260508012444 10 254 1.6 4.8 0.00 0.03 0.03 75 1012.3
20260508011941 10 349 1.6 4.8 0.00 0.03 0.03 75 1012.3
20260508011439 10 288 3.2 3.2 0.00 0.03 0.03 74 1012.1
20260508010936 10 260 3.2 6.4 0.00 0.03 0.03 75 1012.1
20260508010433 9 265 0.0 3.2 0.00 0.03 0.03 77 1011.9
20260508005930 9 260 0.0 1.6 0.00 0.03 0.03 78 1011.9
20260508005427 9 255 0.0 1.6 0.00 0.03 0.03 79 1012.0
20260508004923 9 254 0.0 0.0 0.00 0.03 0.03 81 1012.1
20260508004420 9 254 0.0 1.6 0.00 0.03 0.03 82 1012.0
20260508003916 9 252 0.0 1.6 0.00 0.03 0.03 81 1011.8
20260508003413 9 252 0.0 1.6 0.00 0.03 0.03 80 1011.9
20260508002911 10 252 0.0 0.0 0.00 0.03 0.03 78 1011.7
20260508002407 10 253 0.0 1.6 0.00 0.03 0.03 77 1011.8
20260508001903 10 253 0.0 1.6 0.00 0.03 0.03 75 1012.0
20260508001359 10 254 0.0 1.6 0.00 0.03 0.03 73 1011.9
20260508000855 10 268 0.0 1.6 0.00 0.03 0.03 73 1011.9
20260508000351 10 262 0.0 1.6 0.00 0.03 0.03 73 1011.9
20260507235848 11 271 1.6 3.2 0.00 0.03 0.03 73 1011.9
20260507235346 11 253 0.0 1.6 0.00 0.03 0.03 73 1012.0
20260507234843 11 259 1.6 1.6 0.00 0.03 0.03 72 1011.8
20260507234339 11 264 1.6 3.2 0.00 0.03 0.03 70 1012.0
20260507233836 11 261 3.2 3.2 0.00 0.03 0.03 69 1011.8
20260507233333 11 261 3.2 4.8 0.00 0.03 0.03 68 1011.9
20260507232831 11 256 6.4 11.3 0.00 0.03 0.03 67 1011.8
20260507232327 11 199 3.2 6.4 0.00 0.03 0.03 68 1011.8
20260507231825 11 263 3.2 6.4 0.00 0.03 0.03 68 1011.6
20260507231321 11 281 3.2 6.4 0.00 0.03 0.03 68 1011.8
20260507230817 12 255 4.8 4.8 0.00 0.03 0.03 67 1011.6
20260507230315 12 258 1.6 3.2 0.00 0.03 0.03 66 1011.7
20260507225810 12 235 3.2 4.8 0.00 0.03 0.03 66 1011.7
20260507225306 11 240 3.2 6.4 0.00 0.03 0.03 67 1011.6
20260507224802 11 232 1.6 4.8 0.00 0.03 0.03 68 1011.5
20260507224259 12 222 1.6 4.8 0.00 0.03 0.03 67 1011.6
20260507223755 12 253 3.2 9.7 0.00 0.03 0.03 66 1011.7
20260507223252 12 257 4.8 12.9 0.00 0.03 0.03 66 1011.4
20260507222749 12 250 6.4 9.7 0.00 0.03 0.03 65 1011.4
20260507222245 12 13 6.4 9.7 0.00 0.03 0.03 65 1011.4
20260507221742 12 275 4.8 6.4 0.00 0.03 0.03 65 1011.3
20260507221238 12 209 1.6 3.2 0.00 0.03 0.03 66 1011.5
20260507220735 12 336 6.4 9.7 0.00 0.03 0.03 65 1011.1
20260507220233 12 286 6.4 12.9 0.00 0.03 0.03 65 1011.3
20260507215729 12 213 1.6 4.8 0.00 0.03 0.03 64 1011.5
20260507215227 12 231 4.8 12.9 0.00 0.03 0.03 64 1011.2
20260507214724 13 264 4.8 11.3 0.00 0.03 0.03 63 1011.2
20260507214221 14 260 1.6 3.2 0.00 0.03 0.03 59 1011.1
20260507213716 14 157 3.2 6.4 0.00 0.03 0.03 61 1011.1
20260507213214 13 296 6.4 6.4 0.00 0.03 0.03 63 1011.0
20260507212709 13 242 3.2 6.4 0.00 0.03 0.03 63 1011.1
20260507212206 13 244 3.2 11.3 0.00 0.03 0.03 64 1010.7
20260507211703 13 326 1.6 9.7 0.00 0.03 0.03 65 1011.0
20260507211158 13 227 1.6 12.9 0.00 0.03 0.03 66 1010.6
20260507210656 12 231 0.0 4.8 0.00 0.03 0.03 69 1010.6
20260507210153 12 232 4.8 9.7 0.00 0.03 0.03 70 1010.6
20260507205649 12 254 0.0 4.8 0.00 0.03 0.03 71 1010.5
20260507205146 12 226 1.6 4.8 0.00 0.03 0.03 72 1010.7
20260507204642 12 235 1.6 4.8 0.00 0.03 0.03 72 1010.6
20260507204140 12 268 6.4 6.4 0.00 0.03 0.03 72 1010.6
20260507203638 12 280 3.2 3.2 0.00 0.03 0.03 74 1010.6
20260507203135 12 244 4.8 6.4 0.00 0.03 0.03 74 1010.4
20260507202631 12 234 3.2 4.8 0.00 0.03 0.03 74 1010.6
20260507202127 12 223 4.8 6.4 0.00 0.03 0.03 74 1010.4
20260507201622 12 273 3.2 11.3 0.00 0.03 0.03 74 1010.5
20260507201120 12 277 11.3 14.5 0.00 0.03 0.03 74 1010.3
20260507200615 12 275 3.2 6.4 0.00 0.03 0.03 77 1010.3
20260507200111 12 213 3.2 6.4 0.00 0.03 0.03 76 1010.3
20260507195609 12 275 1.6 4.8 0.00 0.03 0.03 77 1010.3
20260507195106 12 210 3.2 6.4 0.00 0.03 0.03 75 1010.3
20260507194602 12 267 3.2 6.4 0.00 0.03 0.03 76 1010.3
20260507194058 12 258 3.2 9.7 0.00 0.03 0.03 76 1010.4
20260507193555 12 242 3.2 9.7 0.00 0.03 0.03 75 1010.4
20260507193052 12 261 6.4 11.3 0.00 0.03 0.03 75 1010.5
20260507192548 12 267 4.8 12.9 0.00 0.03 0.03 75 1010.8
20260507192045 13 284 9.7 20.9 0.00 0.03 0.03 73 1010.8
20260507191540 13 235 8.0 12.9 0.00 0.03 0.03 74 1010.7
20260507191038 12 247 1.6 6.4 0.00 0.03 0.03 75 1010.7
20260507190535 12 349 8.0 9.7 0.00 0.03 0.03 76 1011.0
20260507190034 12 358 4.8 16.1 0.00 0.03 0.03 75 1010.8
20260507185532 12 233 3.2 12.9 0.00 0.03 0.03 75 1010.8
20260507185028 12 255 1.6 11.3 0.00 0.03 0.03 76 1011.0
20260507184526 12 240 3.2 4.8 0.00 0.03 0.03 77 1010.7
20260507184024 12 260 3.2 6.4 0.00 0.03 0.03 77 1011.1
20260507183519 12 227 3.2 6.4 0.00 0.03 0.03 78 1011.0
20260507183017 12 5 1.6 4.8 0.00 0.03 0.03 78 1011.1
20260507182513 12 279 1.6 4.8 0.00 0.03 0.03 79 1010.8
20260507182009 12 262 3.2 4.8 0.00 0.03 0.03 79 1011.0
20260507181506 12 189 1.6 3.2 0.00 0.03 0.03 78 1011.0
20260507181002 13 331 9.7 12.9 0.00 0.03 0.03 77 1011.1
20260507180459 12 248 1.6 4.8 0.00 0.03 0.03 78 1010.7
20260507175955 12 246 4.8 9.7 0.00 0.03 0.03 78 1011.0
20260507175452 12 53 3.2 4.8 0.00 0.03 0.03 79 1010.5
20260507174949 12 303 1.6 4.8 0.00 0.03 0.03 78 1010.5
20260507174446 12 264 1.6 6.4 0.00 0.03 0.03 79 1010.6
20260507173944 13 304 3.2 4.8 0.00 0.03 0.03 77 1010.5
20260507173441 13 246 0.0 1.6 0.00 0.03 0.03 79 1010.8
20260507172938 12 261 1.6 3.2 0.00 0.03 0.03 80 1010.5
20260507172434 12 22 0.0 4.8 0.00 0.03 0.03 81 1010.6
20260507171931 12 286 3.2 4.8 0.00 0.03 0.03 79 1010.8
20260507171427 12 335 1.6 1.6 0.00 0.03 0.03 79 1010.8
20260507170924 12 216 0.0 9.7 0.00 0.03 0.03 79 1010.8
20260507170420 12 135 1.6 6.4 0.00 0.03 0.03 80 1010.8
20260507165917 12 18 1.6 4.8 0.00 0.03 0.03 82 1011.0
20260507165413 11 219 0.0 4.8 0.00 0.03 0.03 82 1010.8
20260507164908 12 248 3.2 11.3 0.00 0.03 0.03 81 1011.0
20260507164406 12 297 6.4 11.3 0.00 0.03 0.03 82 1011.0
20260507163903 12 269 3.2 12.9 0.00 0.03 0.03 82 1011.0
20260507163401 11 213 1.6 4.8 0.00 0.03 0.03 83 1011.1
20260507162857 11 263 4.8 14.5 0.00 0.03 0.03 83 1011.2
20260507162352 11 251 0.0 3.2 0.00 0.03 0.03 85 1011.1
20260507161850 11 280 6.4 11.3 0.00 0.03 0.03 84 1011.2
20260507161346 11 353 3.2 11.3 0.00 0.03 0.03 85 1011.3
20260507160843 10 257 4.8 6.4 0.00 0.03 0.03 85 1011.0
20260507160338 10 287 4.8 6.4 0.00 0.03 0.03 85 1011.1
20260507155835 10 12 1.6 1.6 0.00 0.03 0.03 86 1011.1
20260507155331 10 199 0.0 3.2 0.00 0.03 0.03 86 1011.1
20260507154828 10 101 1.6 1.6 0.00 0.03 0.03 87 1011.1
20260507154325 10 267 6.4 12.9 0.00 0.03 0.03 87 1011.1
20260507153822 10 308 1.6 6.4 0.00 0.03 0.03 87 1011.1
20260507153318 10 156 1.6 6.4 0.00 0.03 0.03 87 1011.2
20260507152815 10 225 0.0 6.4 0.00 0.03 0.03 87 1011.1
20260507152311 10 333 4.8 4.8 0.00 0.03 0.03 87 1011.3
20260507151807 10 339 6.4 9.7 0.00 0.03 0.03 86 1011.4
20260507151303 10 260 3.2 9.7 0.00 0.03 0.03 86 1011.2
20260507150801 10 233 1.6 3.2 0.00 0.03 0.03 86 1011.3
20260507150257 10 224 0.0 6.4 0.00 0.03 0.03 86 1011.3
20260507145754 10 45 3.2 4.8 0.00 0.03 0.03 87 1011.1
20260507145250 11 263 3.2 6.4 0.00 0.03 0.03 87 1011.5
20260507144747 11 196 0.0 3.2 0.00 0.03 0.03 87 1011.1
20260507144244 11 169 0.0 3.2 0.00 0.03 0.03 87 1011.0
20260507143741 11 229 0.0 1.6 0.00 0.03 0.03 87 1011.0
20260507143238 11 240 1.6 1.6 0.00 0.03 0.03 88 1010.8
20260507142734 11 22 1.6 9.7 0.00 0.03 0.03 88 1011.0
20260507142231 12 262 4.8 12.9 0.00 0.03 0.03 88 1010.7